GFSCGP_850_temp_273.txt.gz
Temp
11 15 13 11 11 12 12 12 13 14 11 9 13 13 15 13 12 12 12 11 10 9 7 5 4 4 3 3 3 3 4 4 4 6 7 7 7 7 8 8 9 9 9 10
14 12 10 9 10 11 12 12 13 13 10 10 13 13 14 13 12 11 11 11 10 9 8 7 5 4 3 3 3 3 4 4 3 4 5 5 7 7 7 8 8 9 9 10
13 9 8 9 10 12 11 10 10 9 10 11 11 15 14 13 11 11 10 10 9 8 7 7 5 4 3 3 4 3 3 3 3 2 3 4 6 7 7 7 8 9 9 9
9 7 8 9 10 10 12 8 8 9 9 14 12 16 16 15 14 12 11 10 9 8 7 6 5 4 3 4 3 3 3 3 2 2 2 3 4 5 5 6 8 9 9 9
9 8 8 9 9 8 10 7 8 8 9 10 13 14 17 14 15 14 12 10 9 8 7 6 5 4 2 3 3 2 2 2 2 2 2 2 4 4 4 5 7 8 8 9
7 5 7 7 7 7 7 8 8 8 9 9 10 12 18 16 14 14 13 11 9 8 7 6 4 4 2 2 3 3 2 1 2 2 2 2 3 3 3 4 5 7 7 9
8 8 6 5 7 7 8 9 9 10 9 13 9 10 16 16 14 13 12 11 9 8 7 6 5 4 3 4 2 3 2 2 2 2 2 2 2 3 2 3 4 5 7 8
10 10 7 6 7 7 8 9 11 12 14 15 8 12 17 14 12 11 10 10 8 8 7 6 5 4 4 4 4 2 2 1 2 2 1 1 2 2 3 3 3 5 7 7
8 9 5 5 5 6 7 9 7 7 2 8 14 15 15 13 13 12 11 10 10 8 7 6 4 4 4 4 3 4 3 1 1 2 2 2 2 2 2 3 4 5 6 6
6 9 3 5 5 5 6 7 8 7 11 13 13 13 17 13 14 13 12 11 10 8 7 6 4 3 4 4 3 3 3 2 2 1 2 2 2 2 2 2 3 4 5 5
3 6 4 4 5 8 7 7 7 8 8 10 12 18 15 15 15 14 12 10 9 8 7 5 4 5 4 4 3 3 3 3 2 2 2 2 2 2 2 2 3 3 5 6
6 6 8 6 3 4 5 8 9 12 8 7 6 13 12 13 13 11 11 9 8 7 6 6 5 5 5 4 4 3 3 2 2 2 2 2 2 2 2 2 2 2 3 6
6 7 9 7 5 3 4 7 8 7 6 8 9 15 9 9 8 8 8 8 8 8 7 7 7 5 5 4 4 3 3 3 2 2 1 1 2 2 2 2 1 1 1 4
5 4 7 13 10 8 5 5 7 7 7 9 9 9 9 6 5 7 8 8 8 8 8 8 7 6 6 5 5 4 3 3 3 3 3 3 2 2 2 2 1 1 1 3
6 6 4 5 6 6 7 6 5 5 9 10 9 5 8 6 5 9 9 8 9 8 9 8 8 7 7 6 5 4 4 4 4 3 3 3 2 2 2 2 2 2 2 3
5 6 3 5 2 3 3 5 4 4 5 5 5 6 11 11 8 6 7 7 8 9 9 9 8 8 7 6 5 4 4 4 4 4 3 3 3 2 2 3 3 3 4 4
5 5 5 8 2 2 6 3 5 5 5 7 6 10 11 9 7 6 8 9 9 10 9 9 9 8 7 7 6 5 4 4 4 4 4 4 3 3 3 3 4 4 4 4
5 4 4 7 5 10 10 6 7 6 5 5 8 7 8 8 8 9 9 9 10 10 10 10 9 9 8 7 7 6 6 5 5 4 4 4 4 4 4 3 3 4 5 5
4 6 6 7 8 10 14 4 5 6 11 7 7 9 9 7 7 10 12 12 11 11 10 10 10 9 8 8 7 6 6 6 5 5 5 5 4 4 4 4 4 3 3 3
2 3 6 4 7 10 13 5 5 6 11 12 9 9 9 7 10 14 14 13 12 12 11 11 10 10 9 8 8 7 6 6 6 6 5 6 6 5 4 4 4 4 4 4
1 2 3 6 7 8 10 4 5 10 14 9 9 9 8 7 12 12 12 12 12 12 12 11 11 10 9 9 8 7 7 7 6 5 5 6 6 5 5 5 4 4 4 5
3 4 3 5 6 7 4 3 10 11 11 10 9 8 7 7 10 12 12 12 12 12 12 11 10 11 10 9 9 8 8 7 6 6 6 6 6 6 6 6 5 4 4 4
5 8 5 6 7 8 6 11 11 11 10 10 10 9 9 8 10 11 11 11 11 11 11 11 11 10 10 10 9 9 8 8 7 6 6 6 6 6 6 6 6 6 5 4
3 4 4 4 7 6 7 9 10 10 11 11 11 11 11 11 11 11 11 11 11 11 11 11 10 11 10 10 10 9 8 8 8 8 7 6 6 5 6 6 6 6 6 6
5 3 3 3 5 6 7 9 11 12 12 12 12 12 12 11 11 11 11 11 11 11 11 11 11 11 11 10 9 9 8 8 8 8 7 7 6 6 6 6 6 5 5 6
3 4 6 7 9 11 13 14 13 13 13 13 13 12 12 11 12 12 12 12 11 11 11 11 11 11 11 10 10 9 8 8 8 8 7 7 7 7 7 6 6 6 6 6

GFSCGP_850_temp_276.txt.gz
Temp
12 11 9 10 10 11 12 12 12 13 11 9 11 11 12 13 12 12 12 12 11 11 10 8 6 5 4 4 3 4 4 4 4 5 7 6 7 7 7 7 8 10 9 10
12 9 9 10 10 10 11 12 10 11 11 10 9 9 11 13 13 12 11 11 10 10 9 8 7 5 4 4 3 4 3 3 3 4 5 6 6 6 8 8 8 9 10 9
10 9 9 10 11 10 10 10 9 8 9 10 9 9 12 12 12 11 11 10 10 9 8 8 6 5 4 4 4 4 3 2 3 3 4 5 5 6 7 7 8 8 9 8
8 8 9 9 10 9 10 8 8 8 7 9 11 7 12 11 11 10 12 11 10 9 8 7 6 5 5 4 4 3 3 3 2 3 3 5 5 6 6 7 7 8 8 8
8 8 8 9 8 8 8 7 7 8 7 8 10 7 13 12 12 11 12 11 10 9 7 7 6 5 4 4 4 3 3 3 2 2 3 3 4 6 6 6 6 7 8 9
6 6 7 6 7 7 7 7 7 8 7 4 10 8 12 12 14 12 12 11 10 9 8 7 6 5 3 3 3 3 3 2 2 2 2 2 4 4 7 5 5 6 7 8
7 7 6 6 7 7 7 7 5 6 5 6 8 6 9 14 12 13 12 11 10 9 8 7 6 5 4 3 3 3 2 2 2 2 2 2 3 3 5 6 6 5 6 7
8 8 6 6 6 6 7 7 5 8 7 6 7 8 12 11 12 11 11 10 9 9 8 7 5 4 4 4 2 3 2 2 2 2 1 2 2 3 5 6 6 5 5 7
6 7 5 5 5 6 7 6 6 4 -1 3 9 11 14 12 12 11 11 10 10 9 8 7 5 4 4 4 3 2 2 2 2 2 1 2 2 3 3 4 5 5 5 6
5 7 3 4 5 5 5 6 6 3 6 6 8 10 9 11 11 11 10 10 10 9 8 6 5 4 4 4 3 2 3 2 2 2 2 2 2 2 3 3 4 4 5 5
3 6 4 4 3 5 4 4 6 6 5 5 5 8 11 14 14 12 11 10 9 8 7 6 5 4 4 4 4 2 3 2 3 3 2 2 2 2 3 3 3 4 5 6
5 6 6 5 3 4 4 7 7 5 5 3 4 5 9 8 9 10 11 10 8 8 8 7 6 5 4 3 3 3 2 2 3 3 3 2 2 2 1 2 2 3 4 6
5 5 6 6 4 3 3 5 7 5 4 4 4 7 8 9 9 10 9 9 8 8 8 8 7 6 4 3 3 3 3 2 2 3 3 3 2 1 1 1 1 1 3 5
6 2 5 8 9 5 3 3 5 5 2 5 5 6 8 5 4 8 10 10 9 9 9 9 8 6 5 5 3 3 3 2 3 3 3 3 3 2 2 1 1 1 2 3
5 3 2 2 5 6 5 3 3 3 5 7 6 4 8 3 3 10 10 10 9 10 10 9 9 8 7 5 4 3 3 3 3 3 3 3 3 2 2 2 2 1 2 3
5 4 1 2 1 2 2 4 3 4 3 3 5 5 9 10 10 9 7 7 7 10 10 10 9 9 8 6 5 4 4 3 4 3 3 3 3 3 2 3 2 3 3 4
3 4 4 7 1 -0 4 3 4 3 3 4 4 8 10 8 7 9 10 9 10 10 10 10 10 9 9 8 5 4 4 4 4 4 4 3 4 4 4 4 4 3 4 4
4 4 3 3 3 6 8 6 6 4 4 4 5 5 7 9 10 10 10 11 11 11 10 10 10 10 9 9 7 6 5 4 4 4 4 4 4 4 5 5 5 4 5 5
3 4 4 5 4 7 11 4 4 5 9 6 5 7 8 8 8 10 12 13 12 12 11 10 10 9 10 9 8 7 6 5 5 4 4 4 4 4 4 5 5 5 5 5
2 2 4 3 5 5 11 6 6 7 8 11 7 7 7 7 6 7 14 14 13 12 12 11 10 10 10 10 9 8 7 6 5 5 4 4 4 4 4 4 4 5 5 5
0 1 2 3 5 6 7 5 6 9 12 9 9 9 8 5 9 11 12 13 12 12 12 12 11 10 10 9 9 9 8 7 6 6 5 5 4 4 4 4 4 4 5 5
2 2 2 3 4 5 6 4 8 11 10 10 10 9 9 9 9 10 11 12 12 13 12 12 11 11 10 10 9 9 9 8 7 6 6 6 6 5 5 4 4 5 5 5
4 5 3 4 5 7 6 10 10 10 10 11 11 11 10 8 9 9 10 11 12 12 12 12 11 11 10 10 10 9 9 9 8 7 7 6 6 6 6 5 5 5 4 5
2 5 1 3 5 5 7 10 10 10 11 11 11 11 11 11 11 11 11 11 11 12 12 11 11 11 11 10 10 10 8 9 9 8 8 7 6 6 6 6 6 5 5 5
2 3 0 1 4 7 8 10 11 12 12 12 12 11 11 11 11 11 11 11 11 12 11 11 11 11 11 10 9 9 8 8 9 9 8 8 8 7 6 6 6 6 5 5
3 1 3 4 8 10 12 13 13 13 13 12 11 11 12 12 12 11 11 11 11 11 11 11 11 11 10 10 9 9 8 8 8 8 8 8 8 7 7 6 6 6 5 5

GFSCGP_850_temp_279.txt.gz
Temp
12 7 7 8 9 10 11 11 9 11 9 9 8 7 8 11 11 11 11 10 10 10 10 9 8 8 6 5 4 4 4 4 4 5 5 5 5 5 6 7 7 8 9 9
8 8 8 9 10 10 10 9 8 8 10 9 7 7 8 8 11 12 11 11 10 10 9 8 7 6 5 5 4 4 4 3 3 3 4 5 5 6 6 7 7 9 9 9
9 7 8 9 9 9 7 8 6 6 6 8 7 7 11 11 11 12 11 11 10 9 9 8 7 6 6 5 4 3 3 3 3 3 3 3 5 5 6 7 7 8 8 9
6 7 8 8 8 7 9 7 7 6 4 9 8 7 7 9 9 9 10 10 10 9 8 7 7 6 5 4 4 3 3 2 2 2 2 3 4 4 6 7 7 9 8 9
7 7 8 9 7 7 8 6 6 7 6 6 8 5 7 10 10 8 9 10 10 9 8 7 7 6 5 5 3 3 2 2 2 2 2 2 2 3 5 6 6 8 8 8
5 6 6 6 7 6 6 6 6 6 5 2 7 6 7 9 11 10 10 10 10 9 8 7 6 6 5 4 3 3 2 2 2 2 2 1 2 3 3 5 5 7 7 8
6 6 5 6 6 6 6 6 2 5 4 6 6 5 7 9 11 11 10 10 10 9 8 7 6 5 5 4 3 3 3 2 2 2 2 2 3 3 3 4 5 6 7 8
5 7 5 5 5 6 6 6 3 9 6 6 6 8 11 11 11 11 11 10 10 9 8 7 6 5 5 4 4 3 2 2 2 2 2 2 3 4 2 2 4 6 7 7
3 6 4 4 4 5 6 4 5 1 -3 3 6 8 11 11 11 10 10 10 10 9 8 7 6 5 5 4 3 3 2 2 2 2 2 2 2 3 3 3 5 5 6 7
4 6 2 4 4 5 5 6 5 1 6 7 5 7 9 12 11 9 9 10 9 9 8 6 6 5 4 4 4 3 3 1 1 1 1 2 2 2 3 3 4 5 5 6
1 4 3 3 2 4 3 3 5 4 4 4 3 8 5 11 11 8 9 10 10 9 8 6 6 5 4 4 4 3 3 2 2 2 1 2 2 2 2 3 3 4 5 6
5 4 3 3 2 3 4 6 5 4 4 1 2 6 9 8 9 10 10 10 10 9 9 7 6 5 5 4 4 3 3 3 2 2 2 2 2 2 2 2 3 4 5 5
5 4 3 5 3 2 3 4 6 4 2 2 4 7 7 7 8 10 10 10 10 10 8 9 7 5 5 5 4 4 3 3 3 3 2 3 3 2 1 1 2 3 5 5
6 0 5 7 8 4 2 2 4 3 -0 3 5 6 8 3 2 8 10 11 11 10 10 9 8 7 5 5 4 4 3 3 3 3 2 2 2 2 1 0 0 3 5 5
5 4 -1 -0 4 6 4 3 1 2 5 6 7 4 9 2 3 9 10 9 8 9 10 10 9 8 6 6 5 4 3 3 3 3 3 3 2 2 2 1 1 1 2 4
5 4 1 2 -1 2 2 3 2 3 0 2 3 5 9 10 9 8 9 9 7 8 10 11 10 9 7 6 6 5 3 3 3 3 2 2 3 3 3 2 2 2 2 3
4 3 4 6 -1 1 5 4 3 2 2 4 4 9 8 8 8 9 10 10 10 10 12 12 11 9 8 7 6 6 5 4 3 3 2 2 3 3 3 4 3 4 3 4
3 4 4 5 2 7 7 5 4 4 5 3 5 6 6 8 9 10 11 11 11 11 12 12 11 10 9 8 7 6 5 5 4 3 3 3 3 3 4 4 4 4 4 4
3 3 3 5 1 5 9 5 4 5 9 5 5 7 7 7 7 8 11 12 12 13 12 12 11 11 10 9 7 6 6 5 5 4 4 3 3 3 3 3 3 4 4 5
2 3 5 3 5 7 8 6 6 7 8 10 6 6 5 6 6 5 11 13 12 12 12 12 11 10 11 10 9 7 7 6 6 5 5 4 4 4 3 3 4 4 4 5
1 1 3 4 5 5 6 6 7 8 11 10 9 9 7 5 8 10 11 12 12 12 12 12 11 11 10 10 10 9 8 7 6 6 6 5 5 5 4 4 4 4 4 4
2 2 2 3 4 5 6 5 8 10 10 10 10 10 9 9 9 9 10 11 11 11 12 12 12 11 11 10 10 10 9 7 7 7 7 6 6 5 5 5 5 4 4 4
4 4 2 4 5 6 6 10 11 11 10 10 10 10 10 10 10 9 10 10 11 11 12 12 12 11 11 11 10 9 8 8 7 7 7 7 7 6 6 5 5 5 5 4
1 4 1 3 4 4 8 10 10 10 11 11 11 11 10 10 10 10 10 10 11 11 11 11 11 12 11 11 11 10 8 8 8 7 7 7 7 7 6 6 6 6 5 5
2 2 -0 1 3 5 8 9 10 10 12 12 11 11 11 10 10 10 10 11 11 11 11 11 11 11 11 10 10 10 9 9 9 8 8 7 7 7 7 6 6 6 6 6
1 1 4 4 7 10 11 12 12 11 11 10 11 11 11 10 10 10 10 10 10 10 10 11 11 11 10 10 10 9 9 9 9 9 8 8 7 7 7 6 6 6 6 6

GFSCGP_850_temp_285.txt.gz
Temp
10 8 9 8 7 8 9 9 9 8 7 7 5 5 6 8 8 8 10 11 11 11 10 9 9 8 7 6 5 4 4 4 4 4 4 4 4 4 4 5 5 6 6 7
9 9 7 7 8 9 8 9 8 7 7 6 5 6 6 6 6 9 11 11 11 11 10 9 8 7 7 6 5 4 4 3 3 2 3 3 4 4 4 5 5 6 7 7
10 7 7 8 7 9 7 8 7 7 5 5 4 8 9 9 8 10 10 10 10 10 10 9 8 7 6 5 4 4 3 3 3 3 2 2 3 3 4 4 6 6 7 8
7 7 7 7 8 7 9 6 6 6 5 8 5 10 10 8 7 8 10 10 11 10 10 9 8 7 6 5 4 3 3 2 2 2 2 2 2 3 4 4 6 7 7 8
8 7 7 8 7 6 8 5 5 6 5 5 7 6 9 7 11 10 9 10 11 11 10 9 7 7 6 5 4 3 3 2 2 2 2 1 2 3 4 4 5 7 6 6
5 5 5 5 5 5 5 6 4 3 4 2 7 7 10 10 11 10 10 11 11 10 9 8 7 7 5 5 4 3 3 2 1 2 1 1 2 4 4 4 5 6 7 7
5 6 5 5 6 5 6 5 3 5 2 6 5 5 8 9 8 9 9 11 11 10 9 9 7 6 5 4 3 3 3 2 2 1 2 1 2 3 4 4 4 5 7 7
7 8 5 4 5 6 6 6 4 8 6 5 5 7 11 8 9 9 10 10 10 10 9 9 7 6 6 4 3 3 3 2 2 1 1 1 2 3 4 4 4 5 6 7
5 7 3 3 4 4 5 4 5 1 -4 2 6 7 8 8 7 8 9 9 10 10 9 8 7 6 5 4 3 3 2 2 2 1 1 1 2 2 3 3 4 4 5 6
6 7 2 3 4 4 5 4 5 1 7 7 6 7 9 10 9 7 7 9 11 10 9 8 7 6 5 4 4 3 3 2 2 1 0 0 1 2 2 4 4 5 5 6
1 5 3 3 2 4 3 2 4 4 4 4 3 9 5 9 9 8 8 11 11 11 10 8 7 7 5 4 4 4 3 2 2 1 1 1 1 1 2 3 5 6 5 6
5 4 3 3 1 2 3 6 5 5 4 -1 1 6 9 6 8 8 10 11 11 10 10 9 8 7 6 5 4 4 3 2 2 2 0 -0 1 1 2 3 3 4 5 6
5 4 3 5 3 2 3 3 4 3 2 1 3 7 6 6 6 9 9 12 11 10 10 9 9 8 6 5 5 4 4 3 2 1 0 0 0 0 0 2 4 5 5 5
7 0 7 9 9 4 1 1 3 3 1 3 4 6 9 4 4 8 11 11 11 10 9 9 10 9 7 6 5 5 4 4 3 2 0 1 1 0 0 -0 2 4 5 5
6 6 0 -1 3 6 5 1 1 2 5 6 10 4 9 5 3 9 10 11 9 10 9 9 10 9 8 7 6 6 5 4 3 3 1 1 1 1 0 0 1 3 4 5
3 3 -0 2 -2 -0 2 2 1 3 0 2 5 5 9 10 9 8 12 11 11 11 10 9 9 9 8 7 7 6 5 5 4 3 3 1 2 2 1 1 1 2 3 4
3 1 2 4 -3 -2 5 4 3 2 2 5 4 9 8 7 7 8 10 11 10 11 11 11 11 10 9 8 7 7 6 5 4 4 3 2 2 2 2 2 2 2 2 3
2 3 1 1 0 7 7 6 4 4 4 3 5 6 7 6 8 8 8 8 10 11 12 12 11 10 9 8 8 7 7 6 5 5 4 4 3 2 3 3 3 3 3 3
2 3 3 5 4 6 9 3 3 5 10 5 5 7 7 7 8 9 9 9 11 10 12 12 12 10 9 9 8 8 7 6 6 6 5 4 4 3 3 3 4 4 4 4
3 4 5 4 6 7 8 7 6 6 7 9 5 5 5 6 8 7 10 10 11 11 11 12 11 10 10 9 8 8 8 7 6 6 6 5 4 4 4 4 4 3 4 5
3 3 7 6 7 7 7 6 6 7 10 8 8 8 7 5 9 10 9 10 10 12 11 11 11 11 10 9 9 8 8 8 6 6 6 6 5 5 4 4 4 4 4 4
2 5 6 5 7 8 6 4 8 9 10 11 10 10 10 10 10 10 9 10 10 11 11 11 11 10 9 9 9 9 9 7 7 7 6 6 6 5 5 4 4 5 5 5
6 4 5 7 8 8 6 10 10 11 11 11 11 11 10 11 11 10 10 9 10 9 10 11 11 10 10 9 9 9 8 8 7 7 7 6 6 6 6 5 5 4 4 5
-0 1 1 3 4 4 8 10 10 10 11 11 10 10 10 11 10 10 10 10 10 10 10 10 10 10 10 10 9 9 7 8 8 8 7 7 7 7 7 6 6 6 5 5
1 1 -1 -0 3 5 7 8 10 10 10 10 10 10 10 10 11 10 10 10 10 10 10 10 11 11 11 10 10 9 9 9 8 8 7 8 7 7 7 7 6 6 6 6
-0 -1 4 4 8 8 10 12 12 10 11 11 10 10 10 10 10 10 10 10 10 10 10 10 10 10 10 10 10 9 9 9 8 8 8 8 8 7 7 6 6 6 6 6

GFSCGP_850_temp_288.txt.gz
Temp
9 9 10 8 8 8 8 9 9 8 6 5 5 4 6 7 6 6 9 10 11 10 10 10 10 9 7 7 6 5 4 4 3 3 3 4 3 4 4 4 4 5 5 6
9 10 7 7 8 8 8 9 8 7 6 5 4 6 5 5 6 7 9 11 11 10 10 10 9 8 7 6 5 4 4 3 3 2 2 2 3 3 4 3 4 5 6 6
10 8 7 8 7 8 7 9 8 7 4 4 3 7 9 9 8 9 10 10 11 10 10 9 9 8 7 5 5 4 4 3 2 2 2 1 2 3 3 4 4 5 5 6
7 6 7 7 7 7 10 6 6 6 5 8 5 9 10 8 7 8 10 10 11 10 10 9 8 7 6 5 4 4 3 3 2 2 1 1 2 3 4 4 5 5 6 6
8 6 7 8 7 6 8 5 5 5 5 5 6 5 8 8 12 11 9 10 11 10 9 9 8 7 6 5 4 3 3 3 2 1 2 1 2 3 4 5 5 5 6 6
5 5 5 5 5 5 5 5 4 3 4 2 6 6 9 10 11 10 9 10 10 10 9 8 7 7 6 4 4 3 3 3 2 2 2 2 2 3 4 4 5 5 6 7
5 5 4 5 6 5 5 6 4 6 3 6 5 4 8 10 9 8 8 10 10 10 9 8 7 6 5 4 4 3 3 3 2 2 2 1 2 3 4 5 5 5 6 7
6 8 5 4 5 7 6 6 5 8 6 6 5 7 11 8 8 9 9 10 10 10 9 8 7 6 5 4 4 3 3 3 2 2 2 2 2 2 3 4 5 5 6 7
5 6 3 3 3 4 5 4 4 1 -5 2 6 7 8 8 7 8 10 11 12 11 10 9 8 6 5 4 3 3 2 3 2 2 2 2 2 3 3 3 4 4 5 6
6 6 2 3 4 4 5 4 5 2 8 7 5 6 9 12 12 9 8 11 12 11 9 9 8 7 5 4 3 3 2 2 2 2 2 2 2 2 3 3 3 4 5 6
2 5 2 3 2 4 3 2 4 4 4 4 3 9 5 9 9 10 9 12 12 11 10 9 8 7 6 4 3 3 2 2 2 2 2 1 2 2 3 3 4 5 5 6
5 4 2 3 1 2 3 6 5 5 4 -1 1 6 9 6 7 8 10 12 12 11 10 9 9 7 6 5 4 3 2 2 2 2 0 1 1 1 2 2 4 4 5 6
5 4 3 5 3 1 3 3 4 3 2 0 4 7 5 5 6 9 9 13 12 11 10 9 9 8 7 6 4 3 2 2 2 2 0 1 1 1 2 2 3 5 5 6
7 -0 6 9 9 4 1 1 3 3 0 2 3 5 7 4 3 7 11 12 11 10 9 9 9 9 8 6 5 3 3 2 2 2 1 1 1 0 1 3 4 4 5 5
6 6 -1 -2 3 6 5 1 1 1 4 6 8 4 9 4 4 9 10 10 11 11 11 10 9 8 8 7 5 4 3 2 2 2 1 1 1 0 0 3 5 5 5 5
3 3 -0 1 -2 -0 3 2 1 1 -1 1 3 5 9 10 9 8 11 11 10 11 11 11 9 8 9 8 6 4 4 3 2 2 1 1 2 1 1 3 4 5 5 5
3 1 3 4 -3 -0 4 5 3 1 1 5 4 9 8 7 6 8 9 9 9 10 10 11 10 10 10 8 7 5 4 4 3 2 2 2 2 2 2 4 5 5 5 5
3 3 1 0 -0 6 7 4 4 4 5 2 5 6 7 7 8 8 10 9 9 10 10 11 11 11 10 9 7 6 5 4 4 3 2 2 2 3 3 3 4 5 4 5
2 4 3 4 0 6 10 3 4 5 9 5 5 7 7 7 8 9 10 10 10 11 11 11 11 11 10 10 8 7 6 5 4 4 3 3 2 3 3 3 3 4 4 4
3 3 4 2 7 6 7 6 5 6 7 7 5 4 5 6 8 7 10 10 10 11 11 12 12 11 10 10 9 8 7 6 6 5 4 3 3 3 3 3 4 4 4 4
0 1 5 4 8 6 7 5 6 8 10 8 7 8 6 5 9 10 10 10 10 11 11 11 12 11 11 10 9 9 8 7 6 6 5 4 4 3 3 3 3 3 4 4
3 5 6 6 8 9 4 4 8 9 9 11 10 10 9 10 10 10 9 9 10 11 11 11 11 11 10 10 10 9 9 7 7 7 6 6 5 4 4 4 3 3 3 4
6 7 7 8 8 7 7 11 12 12 12 11 11 11 10 10 10 10 10 9 9 10 11 11 10 10 10 10 10 9 8 8 7 7 7 7 6 6 5 5 4 4 4 4
0 1 2 6 4 5 9 11 11 10 11 11 12 11 10 10 10 10 10 10 9 9 9 10 10 10 10 10 10 9 8 8 8 7 7 7 7 7 6 6 6 5 4 4
1 2 -1 1 3 5 8 11 12 10 10 11 10 10 11 11 10 10 10 10 10 10 9 9 10 10 9 9 9 9 8 8 8 7 7 7 7 7 7 6 6 6 5 5
-0 -0 5 9 7 9 10 13 12 9 11 11 10 10 11 10 10 10 10 10 10 9 9 10 10 10 10 10 9 8 8 8 8 8 8 7 7 7 7 7 6 6 5 5